Tracking 25701 objects as of 3-Jul-2022
HD Live streaming from Space Station
objects crossing your sky now

FENGYUN 1C DEB

Track FENGYUN 1C DEB now!
10-day predictions


NORAD ID: 31342
Int'l Code: 1999-025BQW
Perigee: 700.8 km
Apogee: 865.3 km
Inclination: 98.9 °
Period: 100.4 minutes
Semi major axis: 7154 km
RCS: 0.0151 m2 (small)
Launch date: May 10, 1999
Source: People's Republic of China (PRC)
Launch site: Taiyaun Space Center, China (TSC)

Note: This is SATELLITE DEBRIS
aabbcc
Your satellite tracking list
Your tracking list is empty




NASA's NSSDC Master Catalog

Two Line Element Set (TLE):
1 31342U 99025BQW 22183.98160247  .00000082  00000-0  43250-4 0  9999
2 31342  98.8702  87.2406 0114997 322.4117  36.9069 14.34753794799079
Source of the keplerian elements: AFSPC